When you browse on this site, cookies collect data to enhance your experience and personalize the content and advertising you see.
Visit our Privacy Policy to learn more. By continuing to use the site, you agree to this use of cookies and data.
  • In Hungary
  • List of Countries
  • For 7 days
  • Water Temperature
  • Satellite Maps
  • Weather Map
  • News
  • Weather Widgets
  • user-avatar
    Login

    Hourly Weather Kashhatau

    Today, 10 December, Monday

    Time Temperature Precipitation Wind Pressure Humidity
    00:00 -1°C° 0 mm 2 mps 671 mmHg 57%
    01:00 -1°C° 0 mm 2 mps 671 mmHg 58%
    02:00 -1°C° 0 mm 2 mps 670 mmHg 58%
    03:00 -1°C° 0 mm 2 mps 670 mmHg 59%
    04:00 -1°C° 0 mm 2 mps 670 mmHg 60%
    05:00 -1°C° 0 mm 2 mps 670 mmHg 60%
    06:00 -1°C° 0 mm 2 mps 670 mmHg 61%
    07:00 +1°C° 0 mm 2 mps 670 mmHg 60%
    08:00 +2°C° 0 mm 2 mps 669 mmHg 60%
    09:00 +2°C° 0 mm 2 mps 669 mmHg 60%
    10:00 +3°C° 0 mm 2 mps 669 mmHg 61%
    11:00 +4°C° 0 mm 2 mps 669 mmHg 61%
    12:00 +5°C° 0 mm 2 mps 668 mmHg 62%
    13:00 +5°C° 0 mm 2 mps 668 mmHg 65%
    14:00 +5°C° 0 mm 2 mps 668 mmHg 68%
    15:00 +4°C° 0 mm 2 mps 668 mmHg 70%
    16:00 +3°C° 0 mm 2 mps 668 mmHg 70%
    17:00 +3°C° 0 mm 2 mps 668 mmHg 70%
    18:00 +2°C° 0 mm 2 mps 668 mmHg 69%
    19:00 +2°C° 0 mm 2 mps 669 mmHg 68%
    20:00 +2°C° 0 mm 2 mps 669 mmHg 67%
    21:00 +2°C° 0 mm 2 mps 669 mmHg 66%
    22:00 +2°C° 0 mm 2 mps 669 mmHg 67%
    23:00 +2°C° 0 mm 2 mps 669 mmHg 68%

    Tomorrow, 11 December, Tuesday

    Time Temperature Precipitation Wind Pressure Humidity
    00:00 +2°C° 0 mm 2 mps 669 mmHg 69%
    01:00 +2°C° 0 mm 2 mps 669 mmHg 68%
    02:00 +2°C° 0 mm 2 mps 668 mmHg 66%
    03:00 +2°C° 0 mm 2 mps 668 mmHg 65%
    04:00 +2°C° 0 mm 2 mps 668 mmHg 66%
    05:00 +2°C° 0 mm 2 mps 668 mmHg 67%
    06:00 +2°C° 0 mm 2 mps 668 mmHg 68%
    07:00 +2°C° 0 mm 2 mps 667 mmHg 68%
    08:00 +3°C° 0 mm 2 mps 667 mmHg 69%
    09:00 +3°C° 0 mm 2 mps 667 mmHg 70%
    10:00 +4°C° 0 mm 2 mps 667 mmHg 69%
    11:00 +5°C° 0 mm 2 mps 666 mmHg 68%
    12:00 +6°C° 0 mm 2 mps 666 mmHg 67%
    13:00 +6°C° 0 mm 2 mps 665 mmHg 69%
    14:00 +5°C° 0 mm 3 mps 665 mmHg 72%
    15:00 +4°C° 0 mm 3 mps 665 mmHg 74%
    16:00 +4°C° 0.2 mm 3 mps 665 mmHg 76%
    17:00 +4°C° 0.2 mm 3 mps 664 mmHg 77%
    18:00 +4°C° 0.2 mm 3 mps 664 mmHg 79%
    19:00 +3°C° 0.1 mm 3 mps 664 mmHg 78%
    20:00 +3°C° 0.1 mm 4 mps 664 mmHg 77%
    21:00 +3°C° 0.1 mm 4 mps 665 mmHg 77%
    22:00 +3°C° 0.2 mm 3 mps 665 mmHg 77%
    23:00 +3°C° 0.2 mm 3 mps 666 mmHg 77%

    Day after tomorrow, 12 December, Wednesday

    Time Temperature Precipitation Wind Pressure Humidity
    00:00 +4°C° 0.2 mm 2 mps 666 mmHg 78%
    01:00 +3°C° 0.1 mm 2 mps 667 mmHg 78%
    02:00 +3°C° 0.1 mm 2 mps 668 mmHg 79%
    03:00 +2°C° 0.1 mm 2 mps 668 mmHg 80%
    04:00 +2°C° 0.1 mm 2 mps 668 mmHg 79%
    05:00 +3°C° 0.1 mm 1 mps 669 mmHg 79%
    06:00 +3°C° 0.1 mm 1 mps 669 mmHg 78%
    07:00 +3°C° 0.1 mm 1 mps 670 mmHg 78%
    08:00 +2°C° 0.1 mm 2 mps 670 mmHg 78%
    09:00 +3°C° 0.1 mm 2 mps 670 mmHg 77%
    10:00 +3°C° 0 mm 2 mps 670 mmHg 74%
    11:00 +3°C° 0 mm 3 mps 670 mmHg 71%
    12:00 +4°C° 0 mm 3 mps 670 mmHg 68%
    13:00 +4°C° 0 mm 3 mps 669 mmHg 71%
    14:00 +3°C° 0 mm 3 mps 669 mmHg 73%
    15:00 +3°C° 0 mm 3 mps 669 mmHg 76%
    16:00 +3°C° 0 mm 2 mps 669 mmHg 79%
    17:00 +2°C° 0 mm 2 mps 669 mmHg 82%
    18:00 +2°C° 0 mm 1 mps 669 mmHg 85%
    19:00 +2°C° 0.1 mm 1 mps 668 mmHg 86%
    20:00 +2°C° 0.1 mm 1 mps 668 mmHg 87%
    21:00 +2°C° 0.1 mm 1 mps 668 mmHg 88%
    22:00 +2°C° 0.3 mm 1 mps 668 mmHg 89%
    23:00 +2°C° 0.3 mm 1 mps 668 mmHg 91%

    13 December, Thursday

    Time Temperature Precipitation Wind Pressure Humidity
    00:00 +2°C° 0.3 mm 1 mps 668 mmHg 92%
    01:00 +2°C° 0.5 mm 1 mps 668 mmHg 92%
    02:00 +2°C° 0.5 mm 1 mps 668 mmHg 93%
    03:00 +2°C° 0.5 mm 1 mps 668 mmHg 93%
    04:00 +2°C° 0.7 mm 1 mps 669 mmHg 94%
    05:00 +2°C° 0.7 mm 1 mps 669 mmHg 94%
    06:00 +2°C° 0.7 mm 1 mps 669 mmHg 95%
    07:00 +2°C° 0.6 mm 1 mps 670 mmHg 95%
    08:00 +2°C° 0.6 mm 1 mps 671 mmHg 95%
    09:00 +1°C° 0.6 mm 2 mps 671 mmHg 95%
    10:00 +1°C° 0.5 mm 2 mps 671 mmHg 92%
    11:00 +1°C° 0.5 mm 2 mps 672 mmHg 88%
    12:00 +1°C° 0.5 mm 3 mps 672 mmHg 85%
    13:00 +1°C° 0.2 mm 2 mps 672 mmHg 84%
    14:00 +1°C° 0.2 mm 2 mps 672 mmHg 83%
    15:00 +1°C° 0.2 mm 2 mps 673 mmHg 82%
    16:00 +1°C° 0.1 mm 2 mps 673 mmHg 85%
    17:00 +1°C° 0.1 mm 1 mps 673 mmHg 87%
    18:00 0°C° 0.1 mm 1 mps 674 mmHg 90%
    19:00 0°C° 0.1 mm 1 mps 674 mmHg 90%
    20:00 0°C° 0.1 mm 1 mps 674 mmHg 89%
    21:00 -1°C° 0.1 mm 1 mps 674 mmHg 88%
    22:00 -1°C° 0 mm 1 mps 674 mmHg 85%
    23:00 -2°C° 0 mm 1 mps 674 mmHg 82%

    14 December, Friday

    Time Temperature Precipitation Wind Pressure Humidity
    00:00 -2°C° 0 mm 1 mps 674 mmHg 79%
    01:00 -2°C° 0 mm 1 mps 674 mmHg 77%
    02:00 -2°C° 0 mm 1 mps 674 mmHg 75%
    03:00 -3°C° 0 mm 1 mps 674 mmHg 74%
    04:00 -2°C° 0 mm 1 mps 674 mmHg 74%
    05:00 -2°C° 0 mm 1 mps 674 mmHg 74%
    06:00 -2°C° 0 mm 1 mps 675 mmHg 75%
    07:00 -2°C° 0 mm 1 mps 675 mmHg 74%
    08:00 -1°C° 0 mm 1 mps 675 mmHg 74%
    09:00 -1°C° 0 mm 1 mps 675 mmHg 73%
    10:00 0°C° 0 mm 1 mps 675 mmHg 72%
    11:00 -1°C° 0 mm 2 mps 675 mmHg 71%
    12:00 +1°C° 0 mm 2 mps 675 mmHg 70%
    13:00 +1°C° 0 mm 2 mps 675 mmHg 71%
    14:00 +1°C° 0 mm 2 mps 675 mmHg 72%
    15:00 -1°C° 0 mm 2 mps 675 mmHg 73%
    16:00 -2°C° 0 mm 2 mps 676 mmHg 74%
    17:00 -3°C° 0 mm 2 mps 676 mmHg 75%
    18:00 -4°C° 0 mm 2 mps 676 mmHg 75%
    19:00 -5°C° 0 mm 2 mps 676 mmHg 72%
    20:00 -5°C° 0 mm 2 mps 676 mmHg 69%
    21:00 -5°C° 0 mm 2 mps 676 mmHg 66%
    22:00 -5°C° 0 mm 2 mps 676 mmHg 66%
    23:00 -5°C° 0 mm 2 mps 676 mmHg 66%

    15 December, Saturday

    Time Temperature Precipitation Wind Pressure Humidity
    00:00 -5°C° 0 mm 2 mps 676 mmHg 65%
    01:00 -5°C° 0 mm 2 mps 676 mmHg 64%
    02:00 -5°C° 0 mm 2 mps 676 mmHg 62%
    03:00 -5°C° 0 mm 2 mps 676 mmHg 61%
    04:00 -5°C° 0 mm 2 mps 676 mmHg 59%
    05:00 -5°C° 0 mm 2 mps 676 mmHg 57%
    06:00 -5°C° 0 mm 2 mps 676 mmHg 54%
    07:00 -4°C° 0 mm 2 mps 676 mmHg 53%
    08:00 -3°C° 0 mm 2 mps 677 mmHg 51%
    09:00 -3°C° 0 mm 2 mps 677 mmHg 50%
    10:00 +1°C° 0 mm 1 mps 677 mmHg 49%
    11:00 +2°C° 0 mm 1 mps 677 mmHg 48%
    12:00 +4°C° 0 mm 1 mps 676 mmHg 47%
    13:00 +4°C° 0 mm 1 mps 676 mmHg 51%
    14:00 +3°C° 0 mm 1 mps 676 mmHg 56%
    15:00 +3°C° 0 mm 1 mps 676 mmHg 60%
    16:00 +2°C° 0 mm 1 mps 676 mmHg 61%
    17:00 +1°C° 0 mm 1 mps 676 mmHg 61%
    18:00 0°C° 0 mm 1 mps 676 mmHg 62%
    19:00 0°C° 0 mm 1 mps 676 mmHg 60%
    20:00 0°C° 0 mm 1 mps 676 mmHg 58%
    21:00 0°C° 0 mm 1 mps 676 mmHg 57%
    22:00 0°C° 0 mm 1 mps 676 mmHg 57%
    23:00 0°C° 0 mm 1 mps 676 mmHg 57%
    Show more